www.pogodaiklimat.ru

Погода и климат >> Архив погоды >> Россия >> Приморский край >> Красный Яр


ПОГОДА в Красном Яре

  • Прогноз погоды в Красном Яре
  • Монитор погоды в Красном Яре

АРХИВ ПОГОДЫ в Красном Яре

Время (UTC), дата Ветер
(напр.,м/с)
 
Видим.   Явления Облачность Т
(С)
Тd
(С)
f
(%)
Тe
(С)
Тes
(С)
Комфортность P
(гПа)
Po
(гПа)
Тmin
(С)
Tmax
(С)
R
(мм)
R24
(мм)
S
(см)
00 16.04 СВ 2 50 км ясно +10.9 -4.0 35 +10 +19 1007.1 991.6
03 16.04 Ю 3 50 км ясно +20.5 -4.1 19 +21 +33 комфорт 1003.4 988.5
06 16.04 ЮЗ 3 50 км 6/0
[Cs]
+22.3 -1.1 21 +21 +28 комфорт 1000.5 985.7
09 16.04 Ю 2 50 км 8/3 600 м
[Cb cap Ci ing]
+19.6 -0.5 26 +20 +21 999.8 984.9 +23.0
12 16.04 штиль 0 20 км 8/0
[Cs]
+7.6 -1.6 52 +7 +7 1001.4 985.8
15 16.04 З 1 20 км 8/0
[Cs]
+5.9 -1.1 61 +5 +5 1002.7 987.0
18 16.04 З 1 20 км 10/0
[Cs]
+6.3 -0.1 64 +6 +6 1003.3 987.6
21 16.04 штиль 0 50 км 8/0
[As trans]
+2.5 -1.6 74 +2 +2 1005.1 989.2 +2.2
00 17.04 ЮЗ 3 50 км 9/0
[As trans]
+18.7 -3.2 22 +19 +22 1004.7 989.7
03 17.04 З 4-10
{10}
50 км 4/0
[As trans]
+22.5 0.0 22 +22 +29 комфорт 1002.7 987.9
06 17.04 ЮЗ 3
{10}
50 км 8/0
[As trans]
+25.6 -1.1 17 +24 +27 комфорт 999.3 984.7
09 17.04 ЮЗ 1 50 км 10/0
[As trans]
+20.8 -1.4 22 +22 +22 комфорт 998.2 983.4 +25.7
12 17.04 СВ 1 20 км 10/0
[Ci fib]
+7.8 -1.4 52 +8 +8 998.8 983.3
15 17.04 С 1 20 км 9/0
[Ci fib]
+2.5 -1.7 74 +1 +1 998.7 982.9
18 17.04 штиль 0 20 км 9/0
[Ci fib]
+0.1 -2.7 81 -1 -1 997.1 981.2
21 17.04 СВ 1 50 км 8/0
[Ac trans]
+0.3 -2.5 81 -2 -1 997.0 981.1 -0.7
00 18.04 Ю 4 50 км 10/10 600 м
[Cb cap]
+15.0 -2.0 31 +14 +14 995.7 980.6
03 18.04 ЮЗ 3 50 км 10/10 600 м
[Cb cap]
+13.0 +5.4 60 +12 +12 996.5 981.4
06 18.04 З 3
{11}
4000 м слаб. ливневой дождь 10/10 600 м
[Cb cap]
+6.5 +5.1 91 +3 +3 1000.7 985.1
09 18.04 З 3
{10}
50 км {ливн. осадки} 10/10 600 м
[Cb cap]
+4.0 -2.0 65 +1 +1 1004.4 988.5 +15.9 5
12 18.04 З 5-11
{12}
20 км {ливн. осадки} 10/10 600 м
[Cb cap]
+1.0 -4.4 67 -4 -4 1008.3 992.3
15 18.04 ЮЗ 1
{11}
20 км 10/3 600 м
[Cb cap Ac trans]
-0.5 -3.4 81 -2 -2 1008.4 992.3
18 18.04 ЮЗ 3 20 км ясно -0.8 -8.4 56 -5 -5 1008.5 992.3
21 18.04 ЮЗ 3 50 км ясно -0.5 -12.6 39 -4 -4 1008.8 992.6 -1.2
00 19.04 З 6-12
{13}
50 км 8/8 600 м
[Cb cap]
+2.4 -13.1 31 -2 -2 1008.4 992.4
03 19.04 З 6-10
{13}
50 км 10/10 600 м
[Cb cap]
+3.7 -11.2 33 -1 -1 1009.4 993.5
06 19.04 З 5
{12}
50 км 10/10 600 м
[Cb cap]
+4.0 -8.4 40 -0 -0 1009.8 993.9
09 19.04 З 4
{10}
50 км 8/8 600 м
[Cb cap]
+4.3 -8.2 40 +1 +1 1010.8 994.9 +4.8
12 19.04 З 1 20 км 9/9 600 м
[Sc]
+2.2 -5.1 58 +1 +1 1012.6 996.6
15 19.04 штиль 0 20 км 6/6 600 м
[Sc]
-1.6 -4.2 82 -3 -3 1012.6 996.4
18 19.04 штиль 0 20 км 5/5 600 м
[Sc]
-2.5 -6.5 74 -3 -3 1013.6 997.3
21 19.04 штиль 0 50 км ясно -4.5 -5.8 91 -6 -5 1014.2 997.7 -5.8
00 20.04 З 2 50 км ясно +4.7 -7.7 40 +3 +12 опасность
простуды
1013.2 997.3
03 20.04 ЮВ 1 50 км 3/0
[Ci fib]
+8.9 -7.3 31 +9 +26 опасность
простуды
1011.1 995.5
06 20.04 ЮЗ 1 50 км 3/0
[Ci fib]
+11.7 -8.0 24 +12 +22 1008.4 993.0
09 20.04 ЮЗ 2 50 км ясно +11.3 -6.6 28 +11 +11 1006.5 991.1 +12.7
12 20.04 штиль 0 20 км 3/0
[Ci fib]
-0.9 -5.9 69 -2 -2 1008.3 992.1
15 20.04 В 1 20 км ясно +0.7 -5.7 62 -1 -1 1007.3 991.2
18 20.04 ЮВ 2 20 км 8/0
[Cs]
+1.2 -5.0 63 -2 -2 1006.8 990.8
21 20.04 штиль 0 50 км 3/0
[Ci fib]
-1.8 -5.5 76 -3 -2 1008.5 992.3 -2.4
00 21.04 ЮЗ 2 50 км 9/0
[Cs]
+10.6 -4.9 33 +10 +17 1008.6 993.1
03 21.04 З 3 50 км 6/3 600 м
[Cu hum Ci fib]
+13.7 -9.1 20 +13 +21 1008.3 993.0
06 21.04 З 4-10
{11}
50 км 4/4 600 м
[Cu hum]
+15.0 -10.3 16 +14 +18 1007.6 992.3
09 21.04 С 3
{11}
50 км 4/4 600 м
[Cu hum]
+12.4 -12.2 17 +12 +12 1008.8 993.3 +15.1
12 21.04 штиль 0 20 км ясно +0.1 -6.2 63 -1 -1 1012.3 996.1
15 21.04 штиль 0 20 км ясно -3.6 -9.3 65 -4 -4 1013.5 997.1
18 21.04 штиль 0 20 км ясно -6.0 -9.0 79 -7 -7 1015.7 999.1
21 21.04 штиль 0 50 км ясно -5.8 -7.9 85 -7 -6 1017.5 1000.9 -7.7
00 22.04 ЮЗ 1 50 км ясно +8.7 -7.3 31 +9 +20 опасность
простуды
1017.1 1001.3
03 22.04 З 3 50 км 1/1 600 м
[Cu hum]
+13.3 -12.7 15 +13 +24 опасность
простуды
1016.4 1000.9
06 22.04 З 2 50 км 1/1 600 м
[Cu hum]
+15.6 -11.8 14 +16 +24 1014.2 998.8
09 22.04 ЮЗ 2 50 км 3/0
[Ci fib]
+13.7 -10.4 18 +14 +14 1013.8 998.4 +16.3
12 22.04 штиль 0 20 км 4/0
[Ci fib]
+1.5 -7.6 51 +1 +1 1015.6 999.5
15 22.04 СЗ 1 20 км ясно -2.4 -8.8 61 -4 -4 1014.9 998.5
18 22.04 штиль 0 20 км 10/0
[Ac As]
-0.3 -5.6 67 -1 -1 1013.4 997.2
21 22.04 СВ 1 50 км 10/10 600 м
[Cb cap]
+3.2 -5.1 54 +2 +2 1011.2 995.2 -2.8

 

Местоположение метеостанции Красный Яр (Приморский край, Россия): широта 46.53 долгота 135.30 высота над уровнем моря 130 м.

В архиве по умолчанию представлена погода в Красном Яре за последнюю неделю. Архивные данные за месяц целиком и за предыдущие месяцы, начиная с января 2011 года, Вы можете получить, выбрав интересующий диапазон дат из раскрывающегося списка и нажав кнопку "Ввод!".


*Определитесь, кто Вы:
робот инопланетянин человек

Внимание! Время в таблицах - всемирное. Для получения местного времени необходимо прибавить поправку, которая равна 10 ч.

Смотрите также архив погоды в соседних городах и на ближайших метеорологических станциях:

Погода в Глубинном (Приморский край, Россия) (51 км)
Погода в Бикине (Хабаровский край, Россия) (89 км)
Погода в Лермонтовке (Хабаровский край, Россия) (103 км)
Погода в Вяземском (Хабаровский край, Россия) (119 км)
Погода в Мельничном (Приморский край, Россия) (121 км)
Погода в Бичевой (Хабаровский край, Россия) (140 км)
Погода в Гвасюгах (Хабаровский край, Россия) (141 км)
Погода в Дальнереченске (Приморский край, Россия) (143 км)
Погода в Малиново (Приморский край, Россия) (150 км)
Погода в Хоре (Хабаровский край, Россия) (151 км)

Пояснения к столбцам:

Ветер - указаны скорость ветра в м/с - средняя за 10 мин, порывы в срок и между сроками (в фигурных скобках) и направление, откуда дует ветер: С - северный, СВ - северо-восточный, В - восточный, ЮВ - юго-восточный, Ю - южный, ЮЗ - юго-западный, З - западный, СЗ - северо-западный.
Видимость - горизонтальная дальность видимости в метрах или километрах. При видимости от 1 до 10 км при отсутствии осадков обычно наблюдается дымка, при ухудшении видимости до 1 км и менее - туман. В сухую погоду видимость может ухудшаться дымом, пылью или мглою.
Явления - указаны атмосферные явления, наблюдавшиеся в срок или в последний час перед сроком; фигурными скобками обозначены явления, наблюдавшиеся между сроками (за 1-3 часа до срока); квадратными скобками обозначены град или гололедные отложения с указанием их диаметра в мм.
Облачность - указаны через наклонную черту общая и нижняя облачность в баллах и высота нижней границы облаков в метрах; квадратными скобками обозначены формы облаков: Ci - перистые, Cs - перисто-слоистые, Cc - перисто-кучевые, Ac - высококучевые, As - высокослоистые, Sc - слоисто-кучевые, Ns - слоисто-дождевые, Cu - кучевые, Cb - кучево-дождевые. Подробнее классификацию облаков см. в Атласе облаков (PDF).
T - Температура воздуха - температура, измеренная на высоте 2 м над землей.
Td - Температура точки росы - температура, при понижении до которой содержащийся в воздухе водяной пар достигнет насыщения.
f - Относительная влажность воздуха - влажноcть воздуха, измеренная на высоте 2 м над землей.
Te - Эффективная температура - температура, которую ощущает одетый по сезону человек в тени. Характеристика душности погоды. При расчете учитывается влияние влажности воздуха и скорости ветра на теплоощущения человека.
Tes - Эффективная температура на солнце - температура, которую ощущает человек, с поправкой на солнечный нагрев. Характеристика знойности погоды. Зависит от высоты солнца над горизонтом, облачности и скорости ветра. Ночью, в пасмурную погоду, а также при ветре 12 м/с и более поправка равна нулю.
P - Атмосферное давление - приведенное к уровню моря атмосферное давление.
Po - Атмосферное давление - измеренное на уровне метеостанции атмосферное давление.
Tmin - Минимальная температура - минимум температуры воздуха на высоте 2 м над землей.
Tmax - Максимальная температура - максимум температуры воздуха на высоте 2 м над землей.
R - Количество осадков - Количество выпавших осадков за период времени, мм. При наведении курсора мыши на число - период времени, за который выпало указанное количество осадков.
R24 - Количество осадков - Количество выпавших осадков за 24 часа, мм.
S - Снежный покров - Высота снежного покрова, см. При наведении курсора мыши на число - состояние снежного покрова и степень покрытия местности в баллах.